STARLINK-38049, 69751

Orbit data source: Space-Track

STARLINK-38049, 69751 is a payload satellite owned by SpaceX/Seattle (US) in SSO that was launched on Thu, 02 Jul 2026 UTC via an FALCON 9 launch vehicle from the Air Force Western Test Range (AFWTR). Payload-class satellites include a variety of spacecraft equipped with specific instruments for various scientific and technological missions. These include communications satellites like Starlink; space stations such as the ISS; scientific satellites like the Hubble; Earth observation satellites from companies like Planet Labs, Umbra, and HawkEye 360; GPS; miniature CubeSats for education and research; and military/defense satellites.

Loading next visibility...
Identifier
69751, 2026-150N
Orbit
SSO
Country
Flag of USUS
Related business
Manufacturer
SpaceX/Seattle
Mission
Operational spacecraft
Bus & Motor
STARLINK V2MO, Unknown motor
Mass
575 kg wet, ~530 kg dry
Launch date (UTC)
2026-07-02 (3 weeks ago)
Launch vehicle
FALCON 9
Launch site
Air Force Western Test Range (AFWTR)
Object type
Payload
Rocket body
Debris
Shape & HBR
Unknown shape, 17.7 m
Radar Cross Section
Large (>1 m²)

Expand to show TLE details & history
Last TLE update: 17 hours ago

TLE from 17 hours ago
0 STARLINK-38049
1 69751U 26150N   26202.52813423  .00244041  00000-0  12339-2 0  9997
2 69751  97.2842  41.2882 0000716 115.7872 244.3470 15.80914458  4320
Epoch: 2026-07-21T12:40Z
TLE epoch observation values (Epoch: 2026-07-21T12:40:30.797Z)
Latitude
-0.00005°
Longitude
-88.13665°
Altitude
331.237 km
Speed
7.71 km/s
True Right ascension
02h 45m 09s
True Declination
0° 00' 00"
Sunlit
Object was in daylight at epoch
Visualization orbit readout
Latitude
Unknown
Longitude
Unknown
Altitude
Unknown
Speed
Unknown
Apparent Right ascension
Unknown
Apparent Declination
Unknown
Sunlit
N/A
Visualization observer readout
Local Sidereal Time
18:39:47
Azimuth
Unknown
Elevation
Unknown
Doppler factor
Unknown
Orbital elements
Apogee altitude
325.213 km
Perigee altitude
324.253 km
Semi-major axis
6,702.87 km
Eccentricity
0.00007
Inclination
97.2842°
RAAN
41.2882°
Arg. of periapsis
115.7872°
True anomaly
244.3396°
Mean anomaly
244.347°
Eccentric anomaly
244.3433°
Mean motion
3.95505 °/min
Orbital period
91.02 mins
BSTAR
0.0012339
Loading maneuver chart data...
Computing Atmospheric mass density...
Loading historical data...
Loading historical data...
Loading historical data...
Loading historical data...
Loading historical data...
Loading historical data...
Loading historical data...

Documentation

Showing up to 5 results
|